Location: Bessat
(45.8735°N, 1.9924°E)
Time: 21:04:10
(UTC+00:00)

Cosmos 1295 Rocket - Pass Details

Date: 11 May 2021
Orbit: 944 x 994 km, 82.9° (Epoch: 23 June)

Event Time Altitude Azimuth Distance (km) Brightness Sun altitude
Rises 22:00:10 0° 350° (N) 3,719 8.8 -21.5°
Reaches altitude 10° 22:02:42 10° 350° (N) 2,768 7.9 -21.7°
Maximum altitude 22:09:05 85° 264° (W) 1,004 4.5 -22.2°
Enters shadow 22:11:31 41° 179° (S) 1,407 4.9 -22.3°
